RH
100 100 100 100 100 92 72 86 94 96 79 98 92 69 77 75 67 85 76 85 83 66 63 84 66 30 27 32 39 47 42 31 23 19 21 21 12 9 7 7 6 6 5 5
100 100 100 100 100 100 100 95 87 89 77 97 93 85 82 73 85 77 96 86 64 70 89 57 28 30 39 46 48 42 32 26 23 22 24 18 11 8 7 6 6 6 6 6
100 100 100 100 100 98 92 94 97 96 100 92 89 87 86 82 83 76 70 69 76 81 40 32 35 46 54 51 43 34 30 26 26 28 24 15 12 9 8 7 7 6 7 6
100 100 100 100 97 99 96 80 88 98 97 88 95 89 85 77 70 70 67 77 64 34 31 36 46 54 53 45 37 32 28 29 31 32 26 14 14 10 10 8 8 7 7 6
100 100 100 100 100 96 95 96 86 94 88 78 92 74 68 75 70 68 69 47 31 32 40 53 54 52 41 33 29 27 27 30 32 30 23 18 13 12 10 9 8 8 7 7
94 100 89 96 90 88 91 80 98 79 87 99 70 75 83 80 60 61 41 33 35 48 54 53 47 38 31 28 28 29 28 27 23 20 18 18 13 11 10 10 9 8 7 7
97 97 97 88 100 95 86 95 100 94 94 83 84 94 69 61 63 41 38 49 57 59 58 48 38 32 28 29 28 22 17 15 13 13 14 14 13 10 9 10 9 8 8 6
100 100 100 100 86 97 96 99 100 100 87 98 95 60 72 51 42 44 57 63 65 62 48 38 33 33 32 22 16 13 10 9 8 8 10 11 12 10 8 9 9 7 8 7
100 100 100 100 100 100 100 100 100 94 100 78 61 62 44 43 52 68 72 68 58 46 37 33 37 28 19 12 10 8 8 7 7 6 6 7 9 9 8 7 9 8 7 7
100 100 100 100 100 100 100 100 95 83 52 62 44 44 52 76 72 67 65 51 44 38 38 36 24 18 14 14 12 10 10 9 8 7 6 6 7 7 7 6 6 8 7 6
88 100 100 99 94 83 77 58 47 59 47 44 48 75 78 73 70 58 50 45 43 40 34 24 19 19 19 18 16 14 13 11 10 9 8 7 6 6 6 6 6 7 7 6
59 60 51 49 44 37 55 62 48 43 45 73 86 78 74 65 55 50 51 52 41 32 25 20 23 25 23 23 21 16 14 14 13 12 11 9 7 6 5 6 6 6 7 7
39 37 44 51 53 50 46 44 49 78 88 81 76 73 63 55 52 61 59 42 32 24 20 26 28 28 26 22 21 20 18 15 13 11 11 10 9 8 6 5 6 5 5 6
51 55 49 52 53 49 54 83 93 84 79 77 75 68 60 56 64 56 46 31 26 21 27 31 31 30 30 33 28 25 21 19 16 13 11 9 9 8 6 6 5 5 5 4
50 58 65 61 64 91 98 94 87 80 79 78 69 59 62 66 55 48 34 27 21 25 33 34 36 36 38 38 35 30 26 20 16 12 9 6 6 5 4 4 4 5 4 4
70 71 80 95 100 100 97 88 86 85 76 64 67 74 65 56 48 38 27 25 22 31 36 38 38 40 42 43 39 32 27 21 15 11 7 5 4 4 4 4 3 4 4 4
89 98 100 100 99 95 91 88 80 69 77 85 76 65 56 46 42 32 26 23 22 31 39 39 39 40 43 41 36 29 26 22 14 10 6 4 4 3 3 3 3 3 3 3
100 100 100 98 91 87 79 73 82 94 89 74 65 58 48 45 38 32 27 25 21 22 31 36 37 35 34 34 31 28 24 20 14 10 5 4 4 3 3 3 3 2 2 3
100 100 96 88 82 86 94 96 93 82 70 64 60 52 43 40 35 32 30 27 24 21 21 26 33 34 32 29 27 23 20 16 11 8 5 4 4 3 3 3 3 2 2 2
100 99 100 100 99 95 87 77 72 68 64 60 54 42 40 38 34 31 30 29 27 25 22 21 23 27 27 25 23 19 17 13 9 7 4 4 3 3 3 3 2 2 2 2
86 85 83 80 77 73 69 67 65 60 56 50 43 38 36 35 34 31 29 28 27 25 22 19 18 19 22 21 17 16 14 11 8 6 4 3 3 3 2 3 2 2 2 2
76 75 75 72 68 64 61 57 53 50 45 41 40 37 35 34 32 29 27 26 25 23 20 18 15 16 16 17 14 13 13 11 8 6 4 3 3 3 2 2 2 2 2 2
73 68 66 63 56 47 44 42 41 39 38 37 35 32 31 31 30 29 26 24 23 21 19 16 14 14 14 15 13 12 12 10 7 5 3 3 3 3 2 2 2 2 2 2
77 74 64 57 51 43 41 39 38 37 37 34 32 31 30 28 27 26 24 22 21 19 17 14 12 13 14 13 11 11 11 9 7 4 3 3 3 3 2 2 2 2 2 2
66 61 58 57 54 48 42 39 37 36 34 31 30 28 27 26 24 22 21 19 18 17 14 12 12 12 12 12 10 10 9 8 5 4 3 3 2 3 2 2 2 2 2 2
71 70 66 58 52 46 43 39 36 34 32 30 28 25 24 23 21 20 18 16 16 14 12 11 11 12 12 10 8 9 8 6 4 3 3 3 2 2 2 2 2 2 2 2
73 68 59 52 46 42 39 36 32 30 30 28 25 22 21 19 18 17 16 15 14 12 11 10 10 11 10 8 8 9 7 5 4 3 3 3 2 2 2 2 2 2 1 2
Wind_Speed
114 115 114 114 115 113 110 111 112 107 111 113 117 115 116 116 113 113 110 107 107 105 102 104 98 90 84 82 79 76 77 78 75 70 62 58 58 54 49 47 45 44 44 45
118 117 118 120 118 114 114 113 114 115 111 116 117 117 117 114 112 109 106 106 102 101 102 94 87 82 79 77 76 75 76 76 74 69 60 55 54 50 46 44 42 40 40 40
125 123 125 126 120 120 118 114 116 113 113 114 111 112 112 112 108 104 102 101 99 97 89 84 79 77 75 74 74 75 75 74 70 66 60 53 51 48 43 42 40 38 38 37
124 124 130 122 122 119 120 118 112 110 110 110 112 109 106 101 101 100 98 95 92 85 81 77 76 73 73 73 74 75 73 70 65 62 59 55 49 47 43 41 40 39 36 36
125 125 128 122 118 117 118 115 111 109 108 105 102 102 98 100 102 97 91 88 81 77 76 73 71 71 73 75 75 74 71 66 62 60 58 58 51 47 44 42 40 40 37 36
113 115 117 113 111 109 105 101 102 101 99 99 98 98 99 102 92 88 81 76 73 71 69 69 71 73 75 76 75 71 67 64 61 61 59 58 56 48 45 43 41 40 40 37
102 104 99 99 95 97 95 95 94 94 96 97 97 100 97 87 82 76 70 68 67 66 67 70 73 76 76 73 70 68 68 66 62 60 59 57 56 50 44 43 41 40 39 39
91 91 90 93 92 91 91 89 90 95 96 96 101 91 81 75 68 66 65 62 62 65 70 73 75 75 71 71 69 65 64 61 59 57 53 52 51 51 44 42 42 40 39 39
89 87 86 85 87 88 87 89 95 96 96 97 80 74 67 63 62 60 58 60 64 68 71 72 69 70 69 66 63 60 58 56 53 52 51 49 48 49 46 42 42 42 39 39
83 82 81 82 83 86 93 97 96 93 77 71 65 60 57 57 55 55 59 63 67 68 66 66 67 66 63 60 57 55 53 52 50 49 48 45 45 47 48 43 42 42 42 40
83 83 84 86 86 86 85 80 70 65 63 58 54 52 52 50 53 57 62 65 65 63 65 65 63 59 57 55 53 51 49 47 45 44 43 44 44 44 46 45 42 43 43 43
70 69 68 67 67 65 60 58 57 54 51 47 48 48 48 52 56 60 62 61 62 63 63 58 55 54 53 51 49 49 49 47 46 45 43 42 42 45 42 45 43 41 42 43
53 53 53 53 50 48 49 48 45 42 43 44 43 47 51 56 59 60 60 62 61 61 55 54 52 50 49 49 49 49 49 48 48 48 47 45 44 43 46 44 44 44 41 41
43 44 41 40 42 42 39 36 38 40 40 41 46 51 55 59 56 56 60 59 57 54 51 50 48 47 46 47 49 49 49 48 48 48 47 47 48 48 46 45 46 44 45 41
32 32 35 37 36 32 33 35 37 37 40 46 52 55 55 51 54 57 57 56 53 50 48 47 45 45 46 48 49 51 51 51 50 49 48 46 47 49 49 45 42 42 43 44
30 31 30 28 28 30 33 33 35 41 48 52 52 49 50 52 55 54 54 52 49 47 47 46 46 46 46 48 50 50 50 50 50 50 49 47 47 47 46 45 42 40 40 43
23 21 22 25 28 30 31 36 42 47 49 46 45 49 51 52 52 51 51 49 47 46 46 47 47 47 47 48 51 52 53 52 51 50 48 45 44 44 43 41 40 39 40 40
15 19 23 27 30 34 39 43 45 43 42 44 46 49 50 50 49 49 49 49 47 47 47 48 49 49 49 49 51 52 52 52 52 51 48 45 44 43 41 39 39 39 38 39
18 23 29 33 36 38 38 37 37 40 43 46 47 48 49 48 47 47 48 48 48 48 48 49 50 51 50 50 51 51 51 51 50 49 47 45 42 41 39 37 37 38 38 38
22 25 28 29 31 33 35 37 39 42 45 46 47 47 47 47 47 47 48 48 49 49 50 51 51 51 50 50 50 50 50 49 50 48 46 43 42 40 37 36 35 34 35 35
24 28 31 33 35 37 38 40 42 44 46 46 47 47 48 48 48 48 48 49 50 50 51 51 51 51 50 49 48 49 49 47 48 47 45 42 40 39 36 34 32 33 33 33
25 28 31 33 36 37 39 41 42 43 44 45 45 46 48 48 48 49 49 50 50 52 52 52 52 51 49 47 47 48 47 46 47 46 43 41 39 37 34 32 31 31 31 31
26 28 30 32 35 36 37 39 41 44 45 46 46 47 49 49 50 50 51 51 51 52 52 52 51 50 48 46 47 46 45 45 46 44 41 40 39 37 34 30 29 29 29 30
27 29 30 32 34 36 37 39 42 44 46 48 48 49 50 51 51 51 51 52 52 52 52 52 51 48 46 45 45 44 43 44 45 44 42 38 36 36 33 31 28 28 27 27
30 31 32 34 36 38 39 41 43 46 48 49 50 51 52 52 52 52 52 51 52 52 51 51 49 47 46 44 43 43 42 42 42 42 42 40 36 33 33 30 28 27 27 26
35 37 39 39 40 41 42 45 47 49 50 52 52 53 53 54 54 53 51 51 51 52 51 50 48 46 45 44 42 42 41 42 40 39 39 38 37 34 31 31 29 27 26 26
40 43 44 45 46 46 47 49 52 53 54 55 55 55 55 54 53 52 51 51 51 50 49 48 46 45 43 43 41 41 42 42 41 40 38 37 36 34 33 30 29 28 27 25
Wind_Direction
269 271 273 274 274 276 278 280 283 285 287 289 289 292 295 296 298 300 301 302 301 302 304 304 302 300 301 302 302 301 301 302 304 306 305 301 300 296 293 288 283 280 277 274
269 271 274 274 276 278 278 280 282 284 287 287 290 292 293 297 299 299 301 300 304 305 304 300 300 301 301 301 300 300 302 305 305 305 303 302 299 296 293 290 285 282 277 272
266 269 272 272 276 276 278 281 283 285 286 288 290 292 295 296 297 298 299 304 304 302 300 299 299 300 299 299 299 302 303 304 304 303 301 302 299 296 293 290 285 280 274 270
267 269 270 272 275 278 279 280 283 283 284 287 290 291 294 295 298 301 303 303 300 297 297 298 298 298 299 299 300 301 302 302 301 299 300 301 300 296 293 290 286 281 273 268
266 268 268 272 274 277 278 281 283 285 287 289 291 292 296 299 300 302 301 299 296 296 297 297 298 299 300 300 300 300 301 299 299 299 299 299 298 295 290 288 285 282 274 268
263 266 269 270 272 274 277 280 281 285 288 289 293 296 298 300 300 299 297 294 295 295 297 298 300 300 300 301 302 301 301 299 298 297 296 296 295 292 287 285 282 280 276 268
264 267 269 270 272 275 279 282 284 286 289 292 294 296 297 297 296 294 293 294 295 297 299 299 299 300 303 303 302 302 301 300 298 295 294 293 291 290 284 281 279 275 274 268
265 268 271 271 275 277 280 282 286 287 287 290 292 293 292 292 291 291 292 295 298 298 298 299 301 303 304 304 303 302 301 300 299 297 295 292 288 287 283 278 276 273 269 267
260 266 271 273 274 278 281 281 281 284 288 290 288 288 287 289 290 292 295 297 297 298 300 302 304 304 305 305 305 304 303 301 300 298 296 292 289 286 283 278 274 271 265 263
259 262 266 270 272 272 275 277 281 285 283 283 284 285 288 288 291 295 298 297 298 300 303 304 305 307 306 306 307 307 306 303 300 298 296 292 288 285 283 280 274 271 266 259
262 263 265 268 270 271 274 277 278 277 278 280 284 287 289 293 296 297 298 300 302 304 306 306 307 305 305 305 305 305 304 303 303 301 297 292 286 283 282 280 276 273 269 263
262 263 263 264 266 269 272 273 273 275 281 285 285 290 293 295 297 299 301 302 305 306 305 305 304 304 305 306 307 307 306 306 305 303 300 295 291 286 278 277 275 268 267 266
256 259 261 262 265 268 268 271 278 283 283 285 291 293 295 297 300 302 302 304 306 304 304 303 303 304 306 309 311 310 308 307 305 303 301 298 294 288 283 278 274 273 265 262
255 254 259 264 265 267 275 281 281 282 286 291 293 294 297 298 300 301 303 304 304 302 302 302 304 307 310 311 312 312 313 312 310 307 303 299 295 291 287 283 280 275 273 266
251 256 258 261 269 276 278 277 281 287 291 293 293 295 296 299 301 303 302 304 302 302 302 303 306 309 311 312 313 314 314 314 313 311 307 303 298 295 293 290 285 278 274 271
251 254 262 269 272 273 276 283 290 290 289 291 295 295 299 301 302 302 303 303 302 302 302 304 306 308 309 311 311 312 312 313 313 312 309 305 301 298 295 291 287 280 274 270
257 263 268 269 271 278 285 287 285 287 291 291 294 298 300 302 302 304 305 305 302 302 302 303 305 307 308 308 309 311 313 313 314 313 310 307 304 301 298 293 288 283 277 270
270 273 277 280 282 283 282 284 286 287 286 291 296 299 301 304 304 305 307 307 304 303 303 304 307 307 308 307 308 309 309 312 313 314 312 309 307 304 300 294 288 283 279 274
278 281 281 282 283 283 284 284 283 287 291 294 297 300 303 305 306 306 308 309 309 307 307 306 307 307 307 307 307 307 309 311 312 314 312 309 307 306 302 297 290 284 280 276
274 279 282 282 282 281 283 286 290 293 294 296 299 302 303 305 306 307 308 310 311 311 310 308 307 307 307 307 306 308 309 310 312 314 312 310 309 308 305 300 294 288 284 279
283 283 284 286 287 288 290 290 291 293 295 298 301 301 303 305 306 307 308 309 309 310 310 309 308 308 309 309 308 309 310 310 312 314 313 311 311 310 306 302 296 291 288 283
289 287 285 286 288 288 289 291 292 294 297 299 300 300 303 305 306 308 309 310 310 310 310 310 309 309 310 309 309 309 311 311 312 314 314 312 311 309 306 302 297 293 289 286
298 294 290 290 292 294 295 296 297 297 298 300 301 302 304 306 307 307 308 309 310 311 310 310 310 311 311 310 311 310 313 312 313 314 315 313 312 311 308 304 298 294 291 288
300 301 300 301 302 300 300 299 300 299 300 302 302 304 305 306 306 307 307 308 310 311 310 311 312 311 311 309 312 312 314 312 313 315 316 314 312 311 309 306 301 295 293 289
300 302 303 306 305 304 304 304 303 303 303 304 305 305 306 306 307 307 307 307 308 309 310 311 311 312 311 311 313 312 312 311 314 315 316 315 314 312 309 307 304 298 295 293
304 305 306 307 308 309 308 307 307 307 307 308 307 306 306 306 307 307 306 305 307 309 310 312 312 311 310 311 312 313 311 313 315 316 316 314 313 312 308 306 304 301 296 294
305 303 305 307 308 311 310 310 309 308 308 308 307 306 306 306 306 306 306 307 307 308 310 311 310 310 310 313 314 313 314 315 316 317 317 315 313 312 309 307 305 302 299 296